Regional Weather Roundup
Issued by NWS Newport/Morehead, NC

Current Version | Previous Version | Graphics & Text | Print | Product List | Glossary On
Versions: 1 2 3 4 5 6 7 8 9 10 11 12 13 14 15 16 17 18 19 20 21 22 23 24 25 26 27 28 29 30 31 32 33 34 35 36 37 38 39 40 41 42 43 44 45 46 47 48 49 50
000 ASUS42 KMHX 182310 RWRMHX WEATHER ROUNDUP FOR EASTERN NORTH CAROLINA NATIONAL WEATHER SERVICE NEWPORT/MOREHEAD CITY NC 700 PM EDT THU SEP 18 2014 NOTE: "FAIR" INDICATES FEW OR NO CLOUDS BELOW 12,000 FEET WITH NO SIGNIFICANT WEATHER AND/OR OBSTRUCTIONS TO VISIBILITY NCZ015>017-031-032-045>047-102-103-190000- NORTH COAST CITY SKY/WX TMP DP RH WIND PRES REMARKS EDENTON CLEAR 69 57 66 E5 30.02R ELIZABETH CITY CLEAR 68 56 65 E9 30.02R KITTY HAWK CLEAR 70 56 59 E6 30.01R MANTEO CLEAR 70 57 62 NE10 30.02R $$ NCZ045>047-081-094-103-104-190000- CENTRAL COAST CITY SKY/WX TMP DP RH WIND PRES REMARKS FRISCO CLEAR 69 57 65 NE7 30.01R SWANQUARTER N/A 72 N/A N/A E2G9 29.97S $$ NCZ095-097-098-100-101-190000- SOUTHERN COAST CITY SKY/WX TMP DP RH WIND PRES REMARKS BEAUFORT CLEAR 73 57 57 NE9 30.00R CEDAR ISLAND N/A 73 N/A N/A NE18 30.06R JACKSONVILLE PTCLDY 75 61 61 E9 29.98R NEWPORT NOT AVBL PINEY ISLAND CLEAR 75 59 57 NE14 30.00R WILMINGTON MOCLDY 75 62 64 E8 29.98R $$ NCZ011>013-027>030-043-044-078>080-089-090>093-098-190000- COASTAL PLAIN CITY SKY/WX TMP DP RH WIND PRES REMARKS AHOSKIE PTCLDY 70 60 70 SE5 30.01R CLINTON CLEAR 75 65 72 CALM 29.98S ELIZABETHTOWN CLOUDY 77 66 69 CALM 29.97S GOLDSBORO CLEAR 75 66 73 E6 29.97S GREENVILLE CLEAR 73 61 64 SE5 30.02R HAVELOCK CLEAR 73 59 61 E6 30.01R KENANSVILLE PTCLDY 73 63 71 CALM 29.99S KINSTON NOT AVBL NEW BERN CLEAR 74 60 61 E6 30.01R RICHLANDS MOCLDY 73 63 68 E7 29.99S ROANOKE RAPIDS NOT AVBL ROCKY MOUNT CLEAR 73 62 68 E3 29.99S WASHINGTON CLEAR 72 59 64 CALM 30.01S WHITEVILLE PTCLDY 74 67 77 CALM 29.97R $$ AMZ130-135-150-152-154-156-158-170-250-252-270-ANZ085-086-088-633-658-670-190000- MARINE OBSERVATIONS STATION/POSITION TIME TEMP WIND PRES WAVE SWELL AIR SEA DIR/SP/G HT/PER HT/PER (UTC) (F) (DEG/KT/KT) (MB) (FT/S) (FT/S) CHESAPEAKE LIGHT 2200 70 80/ 9/ 10 1017.2 BUOY 44014 2300 72 77 50/ 12/ 14 1016.0 4/11 3/11 DUCK 2300 71 75 60/ 12/ 14 1015.8 2E DUCK 2300 N/A 4/13 2/13 OREGON INLET 2300 71 74 40/ 10/ 15 1016.1 BUOY 44095 2300 76 N/A 5/13 2/13 20E OREGON INLET NOT AVBL HATTERAS CG 2300 72 77 40/ 10/ 14 1016.5 DIAMOND BUOY 2300 74 10/ 17/ 23 1015.2 5/ 5 2/12 CAPE LOOKOUT 2200 75 50/ 18/ 20 1015.3 BEAUFORT LAB 2300 74 79 60/ 5/ 10 1015.3 30 SE NEW RIVER 2300 77 83 60/ 17/ 19 1015.2 4/12 2/12 5 SE WRIGHTSVILL 2200 74 81 90/ 16/ 19 N/A BUOY 41002 2247 79 83 40/ 8/ 10 1014.2 3/10 3/10 BUOY 41004 2300 80 83 50/ 10/ 12 1013.2 3/10 3/10 $$

USA.gov is the U.S. government's official web portal to all federal, state and local government web resources and services.